Temp
66 65 66 66 67 67 67 67 68 69 70 70 69 69 69 68 67 67 68 67 67 67 68 68 67 67 68 70 70 69 68 67 65 65 66 67 63 64 66 65 65 66 66 65 64 60 59 59 62 66 67 67 66 66 67 68 69 70 69 69 72 72 73
67 66 67 68 68 68 67 68 68 68 68 69 69 68 68 68 67 66 67 66 65 66 67 67 68 69 67 66 66 66 66 67 68 67 65 64 64 64 64 64 64 63 64 65 65 64 59 59 60 62 62 66 66 66 67 68 68 70 70 71 73 73 72
67 67 68 66 66 68 68 67 67 66 67 67 67 67 67 67 67 67 66 66 65 65 65 65 67 67 67 67 67 66 67 66 68 67 65 66 66 66 64 64 63 63 64 64 63 63 63 62 58 60 62 61 60 64 66 65 67 69 71 71 70 70 68
64 65 66 66 67 67 66 66 65 65 65 65 65 65 65 65 65 65 64 64 64 64 65 64 64 65 66 66 67 67 67 66 67 68 68 67 66 64 65 64 63 64 63 62 62 63 62 60 60 60 62 62 61 61 65 66 68 68 68 68 69 70 70
65 64 64 63 64 64 63 63 64 64 64 64 64 64 63 63 64 64 63 62 62 62 62 64 65 65 66 67 66 66 66 67 68 68 68 67 68 67 65 66 66 68 67 65 66 65 63 62 62 61 61 63 63 64 66 65 66 67 68 69 70 70 72
63 63 62 62 62 62 62 62 62 61 62 62 62 61 61 62 63 63 62 61 60 61 61 61 62 63 62 64 66 66 66 67 66 67 66 67 67 66 66 67 68 68 67 68 68 67 66 64 62 60 64 66 61 62 65 65 63 67 70 70 71 71 71
62 62 62 61 61 61 61 60 60 60 60 60 60 59 61 62 62 61 61 61 61 61 61 60 61 61 61 62 63 63 64 64 65 66 67 67 68 68 68 67 67 68 68 68 67 65 64 63 61 60 61 62 62 61 62 62 64 63 66 68 70 70 70
62 61 61 61 60 60 60 60 60 61 61 61 60 61 62 61 62 61 60 60 60 60 60 59 59 60 60 61 61 62 62 62 63 63 65 66 67 67 68 68 67 68 69 69 68 66 66 64 63 62 61 58 59 59 58 61 62 62 64 68 70 70 70
61 61 60 60 60 60 60 60 59 59 60 61 61 62 62 61 60 60 60 58 58 58 58 58 58 59 58 58 59 59 59 62 60 61 62 63 64 65 66 67 67 68 69 70 69 67 66 66 66 64 62 60 58 56 58 58 60 62 65 63 66 68 68
59 58 58 58 59 59 59 59 59 59 59 59 59 60 60 61 60 60 59 58 58 58 58 57 57 58 58 58 57 57 57 58 59 59 60 61 61 62 62 63 64 66 68 69 69 68 67 66 66 65 64 62 61 57 56 56 58 59 62 64 63 65 68
59 58 58 57 57 57 57 58 58 58 57 58 59 59 59 59 59 59 58 57 57 57 56 56 56 56 56 56 56 56 57 56 57 58 59 59 58 59 60 60 62 64 68 68 69 69 68 67 65 64 63 64 63 59 58 56 58 61 61 64 65 65 65
58 57 57 57 56 55 55 55 57 56 57 57 58 57 57 57 57 56 56 55 55 55 55 54 54 54 55 54 54 54 55 54 54 54 56 57 57 57 58 58 60 61 64 66 67 68 69 68 65 64 64 64 63 62 60 59 57 61 62 61 63 65 65
58 57 56 56 55 55 55 55 55 55 56 57 57 56 56 55 55 55 55 54 54 54 55 54 54 54 54 54 53 53 53 53 53 53 54 55 56 56 56 56 57 58 60 62 65 67 67 68 68 66 66 64 63 63 61 59 58 59 62 61 63 64 66
56 56 56 55 55 55 55 55 55 55 56 56 57 56 55 55 55 54 54 54 54 54 56 54 54 54 53 52 52 52 52 52 52 52 53 53 55 55 56 56 57 59 60 60 61 64 66 67 68 68 66 64 63 64 62 60 59 59 61 62 63 63 64
56 56 55 55 55 55 55 54 55 55 54 56 57 55 55 55 54 54 54 54 55 56 56 55 54 53 51 50 51 51 50 51 51 52 52 52 54 54 54 55 56 57 59 59 60 60 62 64 66 66 65 64 63 64 65 61 59 59 59 61 60 63 64
56 55 54 54 54 54 54 55 55 54 54 55 57 55 54 54 54 54 54 54 55 55 55 55 54 52 51 50 50 50 50 51 51 51 51 52 53 54 54 54 55 56 57 57 58 59 61 62 63 64 65 66 64 64 64 63 61 59 59 59 61 61 62
55 54 54 54 53 54 54 54 55 54 54 54 55 55 55 55 55 54 54 55 55 56 55 55 55 54 51 50 49 49 50 51 52 53 53 53 53 54 54 54 55 55 56 56 57 58 60 60 59 60 61 63 64 64 64 64 63 60 60 59 60 60 61
54 54 53 53 53 54 54 54 54 54 54 53 54 55 56 56 56 55 53 55 55 54 54 54 53 53 52 51 50 50 51 52 52 53 54 54 54 54 54 54 54 55 54 53 55 55 56 55 56 57 59 61 60 62 64 64 63 62 60 59 59 60 61
54 53 53 53 53 53 54 54 54 54 54 53 54 54 55 55 55 56 56 56 55 54 54 53 52 52 51 51 51 51 52 52 53 54 54 54 55 54 53 54 54 53 52 52 52 53 53 52 53 54 54 56 59 61 62 63 63 62 61 61 60 59 60
54 53 53 53 53 54 53 53 54 53 54 53 53 53 54 55 55 55 55 54 54 53 53 52 50 50 51 52 52 52 52 53 54 54 55 55 55 54 54 53 53 53 52 52 51 51 50 50 50 50 51 53 56 57 59 61 63 62 61 60 60 60 60
54 54 54 54 53 53 53 53 53 53 53 52 52 52 54 54 54 55 54 54 54 53 52 51 49 48 49 51 51 52 52 53 53 53 54 55 55 54 53 53 53 53 53 53 51 50 49 48 49 48 50 52 52 52 54 58 60 61 61 61 60 59 59
54 54 54 53 53 52 52 52 53 53 53 52 52 52 53 53 53 53 54 53 53 52 51 49 47 46 46 49 51 52 52 53 53 53 53 54 54 54 54 53 53 53 53 52 49 48 48 47 47 46 47 48 48 48 50 55 58 60 61 61 60 60 59
54 53 53 52 52 52 52 52 52 52 52 52 52 52 52 52 53 52 52 53 53 51 50 49 45 42 43 46 49 51 52 53 53 52 52 51 52 53 52 52 52 52 50 50 48 46 45 45 46 47 46 46 46 46 47 50 54 58 59 59 59 59 58
53 52 52 52 52 52 52 52 51 51 51 51 50 51 51 52 51 51 51 52 51 51 49 46 41 40 40 41 47 50 51 51 52 52 51 50 49 50 50 51 52 52 51 50 50 46 45 44 43 43 44 44 45 45 45 46 52 58 59 59 60 60 59
52 52 52 52 52 52 52 51 51 51 50 50 50 51 50 50 50 51 51 52 51 50 49 43 40 40 40 40 42 49 52 50 50 50 50 49 49 49 49 49 50 50 51 50 50 50 48 45 43 43 43 43 42 43 43 45 48 54 58 59 60 60 60
52 51 51 51 51 51 51 50 50 50 49 50 50 50 50 49 49 50 51 51 50 51 49 42 40 40 40 39 39 45 53 51 50 50 50 49 49 49 48 48 48 49 49 49 49 48 47 47 45 44 45 46 47 45 43 41 42 48 56 58 59 60 61
51 51 51 51 51 51 50 49 49 50 50 50 50 49 49 49 49 50 51 51 51 51 49 42 40 40 40 39 39 44 53 50 50 51 50 49 49 48 47 46 46 47 48 47 47 46 45 46 47 49 52 55 56 53 47 46 44 43 46 54 58 59 63
50 50 51 51 50 50 49 49 49 50 50 49 49 49 49 49 49 50 50 51 51 50 48 40 40 39 39 39 39 45 52 51 50 50 50 49 49 48 48 47 46 46 46 45 46 43 43 44 46 49 52 54 54 55 55 57 60 60 56 54 55 57 60
50 51 50 50 50 49 49 49 49 50 50 50 50 50 50 50 49 50 50 50 50 50 49 40 39 39 39 39 41 52 52 50 49 49 49 49 50 49 48 47 46 45 45 45 44 40 41 43 47 49 50 53 54 56 57 53 42 44 50 53 55 55 55
50 50 50 49 49 48 48 48 49 50 50 50 49 49 49 49 50 50 50 50 49 49 50 44 39 39 39 38 45 52 51 50 49 48 48 49 49 49 48 47 46 44 43 44 41 38 39 41 46 48 49 51 52 51 50 52 48 42 41 41 40 40 40
50 49 49 49 48 48 49 49 49 49 49 49 49 49 50 50 50 50 49 48 48 49 49 46 40 39 39 39 43 50 51 49 48 47 48 49 49 49 48 46 46 44 42 43 39 39 39 42 45 46 46 48 48 46 47 49 51 51 45 44 43 42 42
50 49 49 48 48 48 48 48 49 50 50 50 49 50 51 50 50 50 50 49 46 48 49 47 41 39 39 39 43 50 50 48 47 46 47 47 48 48 48 47 45 43 42 41 38 39 39 41 44 45 45 45 44 44 45 47 46 48 49 49 49 50 50
50 50 49 48 49 48 49 49 49 49 50 51 50 50 50 50 49 49 50 50 49 49 48 49 46 39 40 40 39 48 50 47 45 46 47 47 46 47 48 48 46 40 38 38 38 38 39 39 42 44 44 42 41 41 45 46 46 47 47 47 48 49 48
49 49 50 49 49 49 49 49 49 49 49 49 49 49 48 49 49 49 50 50 50 50 48 48 47 40 40 40 39 42 49 45 46 48 48 47 47 47 47 47 47 42 38 38 38 38 39 39 40 43 42 41 41 41 44 46 46 45 46 46 46 46 47
50 49 50 50 49 49 49 49 49 49 49 49 48 48 48 49 49 49 50 50 50 50 49 45 47 43 39 39 39 39 45 46 44 49 47 48 48 48 48 47 46 42 38 38 38 38 39 39 39 42 40 39 39 39 43 45 45 45 45 45 44 44 45
50 50 49 50 50 49 49 49 49 49 48 49 48 47 47 48 48 49 49 50 51 51 50 50 43 45 41 39 39 39 38 42 39 49 48 48 48 48 49 48 47 41 39 39 39 38 39 38 40 40 38 38 39 39 42 43 43 43 43 43 43 42 43
50 50 50 51 50 50 49 49 50 49 49 49 49 48 48 48 48 48 48 48 49 51 51 51 46 41 44 40 40 39 39 38 39 45 49 48 49 48 48 47 45 39 39 39 39 39 39 39 39 38 38 38 39 40 41 41 41 41 41 40 40 41 42
MSLP
1020.17 1020.41 1020.37 1020.41 1020.29 1020.29 1020.29 1020.29 1020.17 1020.17 1020.09 1020.01 1020.05 1020.13 1020.13 1020.09 1020.05 1019.89 1019.81 1019.69 1019.61 1019.49 1019.33 1019.13 1019.05 1018.89 1018.77 1018.61 1018.57 1018.53 1018.45 1018.45 1018.45 1018.49 1018.33 1018.13 1018.29 1018.01 1017.77 1017.81 1017.69 1017.57 1017.53 1017.57 1017.65 1018.05 1017.93 1017.85 1017.29 1016.81 1016.77 1016.77 1016.81 1016.81 1016.77 1016.81 1016.65 1016.61 1016.77 1016.85 1016.77 1016.85 1016.89
1020.17 1020.33 1020.33 1020.21 1020.25 1020.25 1020.33 1020.29 1020.29 1020.29 1020.29 1020.21 1020.21 1020.29 1020.25 1020.13 1020.09 1020.01 1019.89 1019.81 1019.73 1019.57 1019.41 1019.25 1019.01 1018.85 1018.81 1018.77 1018.65 1018.57 1018.49 1018.33 1018.25 1018.17 1018.17 1018.13 1018.13 1017.97 1017.81 1017.65 1017.61 1017.61 1017.45 1017.45 1017.41 1017.53 1017.89 1017.93 1017.41 1017.29 1017.05 1016.65 1016.77 1016.57 1016.45 1016.37 1016.41 1016.33 1016.29 1016.33 1016.29 1016.33 1016.57
1020.17 1020.25 1020.25 1020.41 1020.41 1020.33 1020.37 1020.41 1020.45 1020.57 1020.57 1020.49 1020.53 1020.53 1020.45 1020.33 1020.25 1020.09 1019.97 1019.93 1019.85 1019.69 1019.57 1019.45 1019.21 1018.97 1018.81 1018.73 1018.65 1018.49 1018.33 1018.29 1018.05 1017.97 1017.97 1017.85 1017.73 1017.65 1017.65 1017.57 1017.69 1017.49 1017.29 1017.21 1017.25 1017.37 1017.37 1017.45 1017.65 1017.17 1016.89 1017.01 1017.21 1016.37 1016.05 1016.13 1016.13 1016.01 1016.01 1016.05 1016.09 1016.21 1016.37
1020.41 1020.41 1020.41 1020.45 1020.45 1020.49 1020.53 1020.65 1020.77 1020.81 1020.77 1020.81 1020.73 1020.81 1020.73 1020.53 1020.45 1020.33 1020.33 1020.25 1020.09 1019.93 1019.73 1019.53 1019.37 1019.17 1018.89 1018.73 1018.57 1018.41 1018.25 1018.13 1017.97 1017.85 1017.69 1017.57 1017.53 1017.49 1017.45 1017.45 1017.45 1017.33 1017.33 1017.33 1017.17 1017.09 1017.25 1017.33 1017.25 1016.97 1016.77 1016.65 1016.69 1016.61 1015.97 1015.69 1015.65 1015.61 1015.69 1015.89 1015.89 1015.81 1015.89
1020.49 1020.57 1020.69 1020.85 1020.89 1020.89 1020.97 1020.97 1020.89 1020.89 1020.97 1020.93 1020.89 1020.93 1020.97 1020.77 1020.57 1020.57 1020.57 1020.49 1020.37 1020.25 1020.09 1019.85 1019.61 1019.45 1019.17 1018.85 1018.57 1018.41 1018.25 1017.97 1017.77 1017.69 1017.57 1017.45 1017.33 1017.17 1017.21 1017.17 1017.01 1016.81 1016.77 1016.85 1016.65 1016.65 1016.85 1016.77 1016.81 1016.61 1016.45 1016.25 1016.25 1016.09 1015.65 1015.49 1015.25 1015.33 1015.33 1015.33 1015.25 1015.37 1015.33
1020.89 1020.93 1021.05 1021.21 1021.21 1021.17 1021.21 1021.29 1021.25 1021.29 1021.21 1021.13 1021.21 1021.25 1021.21 1021.05 1020.85 1020.85 1020.77 1020.77 1020.65 1020.49 1020.37 1020.13 1019.89 1019.73 1019.57 1019.17 1018.81 1018.53 1018.25 1018.01 1017.89 1017.73 1017.53 1017.37 1017.21 1017.21 1016.93 1016.73 1016.69 1016.61 1016.49 1016.21 1016.17 1016.17 1016.13 1016.29 1016.49 1016.45 1015.85 1015.77 1016.05 1015.65 1015.29 1015.21 1015.29 1014.97 1014.73 1014.69 1014.57 1014.73 1014.89
1021.25 1021.33 1021.37 1021.45 1021.53 1021.49 1021.53 1021.61 1021.61 1021.65 1021.57 1021.57 1021.53 1021.57 1021.45 1021.21 1021.05 1021.13 1021.01 1020.85 1020.73 1020.61 1020.45 1020.29 1020.09 1019.93 1019.77 1019.49 1019.21 1019.01 1018.69 1018.45 1018.21 1017.93 1017.57 1017.29 1017.05 1016.85 1016.73 1016.57 1016.41 1016.29 1016.17 1016.01 1016.09 1016.17 1016.17 1016.17 1016.13 1016.05 1015.85 1015.53 1015.57 1015.45 1015.17 1015.13 1014.77 1015.01 1014.45 1014.25 1014.13 1014.25 1014.37
1021.53 1021.65 1021.69 1021.73 1021.81 1021.85 1021.81 1021.85 1021.89 1021.81 1021.73 1021.73 1021.65 1021.61 1021.53 1021.41 1021.25 1021.17 1021.17 1021.01 1020.89 1020.81 1020.65 1020.49 1020.33 1020.09 1019.97 1019.73 1019.45 1019.25 1018.97 1018.73 1018.53 1018.25 1017.85 1017.45 1017.09 1016.81 1016.61 1016.37 1016.09 1015.97 1015.81 1015.65 1015.65 1015.69 1015.69 1015.77 1015.77 1015.69 1015.77 1015.69 1015.21 1015.09 1015.05 1014.69 1014.61 1014.45 1014.17 1013.81 1013.73 1013.89 1013.85
1021.85 1021.85 1021.93 1022.01 1022.05 1022.05 1022.05 1022.05 1022.13 1022.13 1022.01 1021.81 1021.73 1021.69 1021.65 1021.61 1021.49 1021.29 1021.25 1021.33 1021.25 1021.09 1020.97 1020.77 1020.61 1020.41 1020.29 1020.09 1019.81 1019.61 1019.37 1019.09 1018.89 1018.53 1018.13 1017.73 1017.37 1017.05 1016.61 1016.25 1016.05 1015.77 1015.53 1015.29 1015.21 1015.25 1015.21 1015.17 1015.13 1015.17 1015.29 1015.33 1015.33 1015.09 1014.89 1014.77 1014.33 1013.85 1013.53 1013.85 1013.53 1013.29 1013.41
1022.21 1022.25 1022.25 1022.29 1022.21 1022.25 1022.29 1022.37 1022.41 1022.41 1022.29 1022.25 1022.13 1022.01 1021.89 1021.77 1021.61 1021.53 1021.45 1021.49 1021.45 1021.33 1021.21 1021.05 1020.93 1020.73 1020.57 1020.33 1020.17 1019.97 1019.69 1019.45 1019.17 1018.73 1018.37 1018.05 1017.73 1017.41 1017.01 1016.65 1016.25 1015.81 1015.45 1015.21 1015.17 1015.01 1014.93 1014.85 1014.77 1014.65 1014.69 1014.81 1014.81 1014.85 1014.69 1014.41 1013.89 1013.77 1013.17 1013.21 1013.41 1012.93 1012.85
1022.37 1022.45 1022.53 1022.57 1022.61 1022.61 1022.69 1022.65 1022.61 1022.61 1022.65 1022.57 1022.41 1022.33 1022.17 1022.01 1021.93 1021.89 1021.89 1021.89 1021.81 1021.69 1021.61 1021.49 1021.37 1021.21 1021.01 1020.73 1020.57 1020.25 1020.01 1019.81 1019.45 1018.97 1018.57 1018.37 1018.09 1017.73 1017.37 1017.01 1016.53 1016.01 1015.37 1015.13 1014.93 1014.77 1014.69 1014.53 1014.49 1014.41 1014.25 1014.13 1014.21 1014.29 1014.21 1014.13 1013.21 1012.81 1012.81 1012.61 1012.61 1012.65 1012.73
1022.65 1022.77 1022.81 1022.89 1022.89 1022.97 1023.05 1023.09 1022.97 1022.97 1022.93 1022.81 1022.69 1022.65 1022.57 1022.45 1022.37 1022.37 1022.37 1022.33 1022.21 1022.13 1021.97 1021.89 1021.73 1021.53 1021.29 1021.05 1020.81 1020.53 1020.25 1020.09 1019.85 1019.49 1019.05 1018.73 1018.37 1018.05 1017.69 1017.29 1016.81 1016.37 1015.81 1015.29 1014.81 1014.49 1014.29 1014.17 1014.17 1014.05 1013.93 1013.77 1013.73 1013.69 1013.69 1013.57 1013.25 1012.25 1012.41 1012.61 1012.29 1012.13 1012.33
1022.97 1023.05 1023.09 1023.09 1023.17 1023.25 1023.29 1023.29 1023.25 1023.17 1023.13 1022.97 1022.97 1022.93 1022.89 1022.85 1022.77 1022.69 1022.65 1022.61 1022.53 1022.33 1022.13 1021.97 1021.85 1021.65 1021.41 1021.21 1021.01 1020.77 1020.49 1020.25 1019.97 1019.65 1019.29 1018.93 1018.61 1018.33 1018.01 1017.61 1017.21 1016.81 1016.29 1015.73 1015.09 1014.45 1014.13 1013.89 1013.73 1013.61 1013.49 1013.45 1013.33 1013.21 1013.17 1013.13 1012.89 1012.37 1011.89 1011.89 1011.85 1011.81 1011.97
1023.37 1023.33 1023.33 1023.33 1023.33 1023.45 1023.45 1023.41 1023.37 1023.37 1023.37 1023.21 1023.09 1023.09 1023.05 1023.01 1023.01 1022.97 1022.93 1022.85 1022.69 1022.45 1022.17 1022.09 1021.93 1021.81 1021.65 1021.53 1021.25 1021.01 1020.73 1020.45 1020.17 1019.81 1019.49 1019.09 1018.69 1018.37 1018.05 1017.73 1017.25 1016.81 1016.37 1016.01 1015.45 1014.81 1014.21 1013.73 1013.37 1013.17 1013.13 1013.09 1013.01 1012.81 1012.81 1012.73 1012.53 1012.13 1011.57 1011.49 1011.61 1011.57 1011.57
1023.57 1023.53 1023.49 1023.49 1023.53 1023.53 1023.53 1023.53 1023.53 1023.53 1023.57 1023.45 1023.29 1023.37 1023.29 1023.29 1023.25 1023.17 1023.09 1022.89 1022.69 1022.45 1022.33 1022.29 1022.09 1022.05 1021.97 1021.77 1021.49 1021.21 1020.93 1020.61 1020.29 1019.93 1019.61 1019.21 1018.81 1018.45 1018.21 1017.81 1017.29 1016.89 1016.53 1016.17 1015.69 1015.21 1014.65 1014.05 1013.49 1013.05 1012.81 1012.77 1012.65 1012.45 1012.25 1012.37 1012.17 1012.09 1011.65 1011.45 1011.49 1011.33 1011.37
1023.69 1023.65 1023.65 1023.69 1023.73 1023.73 1023.73 1023.73 1023.77 1023.77 1023.77 1023.69 1023.45 1023.57 1023.57 1023.49 1023.45 1023.33 1023.13 1023.05 1022.89 1022.73 1022.61 1022.45 1022.33 1022.29 1022.13 1022.01 1021.73 1021.37 1021.05 1020.69 1020.29 1019.93 1019.61 1019.29 1018.89 1018.53 1018.17 1017.85 1017.41 1016.97 1016.61 1016.29 1015.85 1015.29 1014.73 1014.21 1013.65 1013.25 1012.73 1012.33 1012.25 1012.05 1011.89 1011.85 1011.85 1011.65 1011.53 1011.25 1011.05 1011.21 1011.17
1023.81 1023.81 1023.81 1023.93 1024.01 1024.01 1023.97 1024.01 1023.97 1023.97 1023.93 1023.85 1023.57 1023.61 1023.65 1023.57 1023.49 1023.45 1023.33 1023.21 1023.09 1022.93 1022.81 1022.65 1022.41 1022.25 1022.25 1022.13 1021.89 1021.53 1021.13 1020.73 1020.33 1019.89 1019.53 1019.21 1018.85 1018.45 1018.01 1017.65 1017.29 1017.05 1016.69 1016.29 1015.73 1015.21 1014.73 1014.45 1014.13 1013.61 1013.05 1012.41 1011.97 1011.61 1011.45 1011.37 1011.37 1011.29 1011.09 1011.09 1010.81 1010.81 1010.77
1024.01 1024.05 1024.09 1024.17 1024.25 1024.21 1024.21 1024.21 1024.21 1024.17 1024.13 1024.01 1023.93 1023.73 1023.61 1023.65 1023.53 1023.57 1023.57 1023.41 1023.29 1023.25 1023.17 1022.97 1022.73 1022.45 1022.29 1022.13 1021.89 1021.53 1021.13 1020.73 1020.33 1019.85 1019.41 1019.13 1018.81 1018.53 1018.25 1017.93 1017.53 1017.21 1016.93 1016.65 1016.09 1015.69 1015.33 1015.09 1014.69 1014.09 1013.33 1012.69 1012.25 1011.69 1011.13 1010.93 1010.85 1010.85 1010.81 1010.73 1010.57 1010.41 1010.37
1024.25 1024.29 1024.33 1024.37 1024.45 1024.49 1024.49 1024.45 1024.45 1024.41 1024.37 1024.33 1024.25 1024.05 1023.93 1023.89 1023.89 1023.73 1023.65 1023.61 1023.61 1023.57 1023.41 1023.29 1023.13 1022.85 1022.53 1022.17 1021.81 1021.49 1021.05 1020.65 1020.13 1019.77 1019.53 1019.21 1018.89 1018.65 1018.41 1018.13 1017.81 1017.61 1017.33 1017.01 1016.57 1016.17 1015.85 1015.53 1015.05 1014.57 1014.13 1013.41 1012.49 1011.73 1011.21 1010.65 1010.45 1010.41 1010.37 1010.25 1010.21 1010.17 1010.17
1024.45 1024.49 1024.57 1024.65 1024.69 1024.69 1024.77 1024.81 1024.73 1024.73 1024.65 1024.57 1024.57 1024.41 1024.25 1024.13 1024.13 1024.09 1024.09 1024.05 1023.93 1023.81 1023.69 1023.57 1023.45 1023.17 1022.65 1022.21 1021.85 1021.41 1021.13 1020.61 1020.29 1019.97 1019.69 1019.41 1019.09 1018.85 1018.61 1018.33 1018.05 1017.77 1017.45 1017.17 1016.85 1016.61 1016.25 1015.81 1015.41 1015.01 1014.49 1013.81 1012.93 1012.17 1011.33 1010.65 1010.09 1009.97 1009.93 1009.89 1009.73 1009.69 1009.81
1024.73 1024.81 1024.85 1024.93 1024.97 1025.05 1025.09 1025.09 1025.05 1025.01 1024.93 1024.85 1024.77 1024.81 1024.61 1024.45 1024.41 1024.37 1024.33 1024.21 1024.17 1024.01 1023.89 1023.81 1023.77 1023.53 1023.05 1022.45 1022.01 1021.53 1021.21 1020.81 1020.49 1020.25 1019.93 1019.57 1019.29 1019.05 1018.81 1018.53 1018.21 1017.89 1017.61 1017.29 1017.17 1016.89 1016.61 1016.17 1015.73 1015.21 1014.53 1013.97 1013.33 1012.85 1011.97 1010.89 1010.05 1009.61 1009.49 1009.45 1009.41 1009.41 1009.41
1025.01 1025.09 1025.17 1025.21 1025.29 1025.37 1025.37 1025.37 1025.33 1025.25 1025.17 1025.13 1025.13 1025.09 1025.01 1024.85 1024.77 1024.65 1024.53 1024.37 1024.25 1024.17 1024.09 1024.13 1024.25 1024.21 1023.65 1022.93 1022.37 1021.77 1021.45 1021.09 1020.81 1020.49 1020.13 1019.69 1019.41 1019.13 1018.85 1018.61 1018.33 1017.97 1017.69 1017.45 1017.25 1016.97 1016.69 1016.53 1016.13 1015.49 1014.69 1014.29 1013.77 1013.25 1012.45 1011.25 1010.17 1009.41 1009.05 1009.01 1008.97 1008.89 1008.97
1025.37 1025.45 1025.53 1025.57 1025.65 1025.65 1025.61 1025.61 1025.57 1025.53 1025.53 1025.53 1025.49 1025.41 1025.33 1025.17 1025.05 1024.85 1024.69 1024.57 1024.37 1024.29 1024.41 1024.53 1024.73 1024.49 1024.21 1023.61 1022.73 1022.09 1021.73 1021.37 1021.09 1020.81 1020.49 1020.13 1019.69 1019.37 1019.13 1018.89 1018.41 1018.05 1017.73 1017.33 1016.93 1016.53 1016.21 1015.85 1015.61 1015.49 1015.01 1014.45 1013.89 1013.33 1012.65 1011.77 1010.57 1009.49 1008.93 1008.73 1008.57 1008.53 1008.57
1025.65 1025.77 1025.89 1025.89 1025.85 1025.81 1025.81 1025.81 1025.85 1025.85 1025.93 1025.93 1025.85 1025.73 1025.53 1025.37 1025.33 1025.17 1024.97 1024.81 1024.65 1024.57 1024.73 1025.05 1025.01 1024.65 1024.25 1023.93 1023.17 1022.37 1022.01 1021.69 1021.33 1021.01 1020.77 1020.53 1020.17 1019.73 1019.33 1018.97 1018.53 1018.05 1017.61 1017.21 1016.73 1016.33 1015.97 1015.45 1015.01 1014.45 1013.93 1013.77 1013.61 1013.33 1012.65 1011.85 1010.65 1009.29 1008.69 1008.33 1008.09 1008.09 1008.09
1025.97 1026.13 1026.09 1026.09 1026.05 1026.05 1026.05 1026.09 1026.13 1026.21 1026.25 1026.17 1026.05 1025.89 1025.73 1025.65 1025.53 1025.37 1025.21 1025.05 1024.93 1024.89 1025.01 1025.45 1025.21 1024.81 1024.41 1024.05 1023.61 1022.81 1022.09 1021.97 1021.61 1021.33 1021.09 1020.81 1020.45 1020.09 1019.69 1019.21 1018.73 1018.29 1017.85 1017.53 1016.97 1016.33 1015.69 1015.05 1014.45 1013.77 1013.13 1012.53 1012.13 1012.01 1012.05 1011.73 1010.77 1009.57 1008.57 1008.09 1007.77 1007.53 1007.57
1026.33 1026.41 1026.37 1026.29 1026.29 1026.25 1026.33 1026.37 1026.45 1026.45 1026.49 1026.41 1026.21 1026.05 1026.01 1025.85 1025.77 1025.65 1025.45 1025.29 1025.21 1025.17 1025.29 1025.61 1025.33 1024.97 1024.53 1024.21 1023.69 1023.01 1022.21 1022.17 1021.81 1021.53 1021.33 1021.01 1020.69 1020.37 1020.05 1019.61 1019.01 1018.49 1018.09 1017.69 1017.13 1016.73 1016.17 1015.13 1013.93 1013.05 1012.37 1011.61 1010.93 1010.57 1010.41 1010.53 1010.53 1010.01 1008.81 1008.01 1007.49 1007.13 1007.05
1026.57 1026.61 1026.53 1026.49 1026.45 1026.49 1026.57 1026.69 1026.73 1026.69 1026.61 1026.49 1026.37 1026.29 1026.21 1026.13 1026.01 1025.85 1025.69 1025.57 1025.45 1025.37 1025.57 1025.77 1025.49 1025.09 1024.69 1024.29 1023.77 1023.01 1022.41 1022.33 1022.01 1021.69 1021.45 1021.17 1020.85 1020.57 1020.33 1020.01 1019.53 1018.93 1018.49 1018.05 1017.53 1017.05 1016.37 1015.41 1014.33 1013.09 1011.77 1010.85 1010.21 1009.73 1009.49 1009.09 1008.77 1008.81 1008.73 1008.17 1007.49 1007.05 1006.53
1026.77 1026.77 1026.69 1026.65 1026.65 1026.77 1026.85 1026.89 1026.89 1026.85 1026.77 1026.73 1026.65 1026.57 1026.53 1026.37 1026.37 1026.17 1026.01 1025.85 1025.65 1025.53 1025.77 1026.01 1025.61 1025.25 1024.89 1024.45 1023.77 1022.93 1022.53 1022.41 1022.13 1021.85 1021.61 1021.37 1021.09 1020.81 1020.57 1020.29 1019.93 1019.53 1019.01 1018.45 1017.97 1017.73 1016.81 1015.69 1014.53 1013.21 1012.01 1010.97 1010.25 1009.45 1009.01 1008.53 1007.89 1007.53 1007.61 1007.69 1007.57 1007.29 1006.81
1026.93 1026.85 1026.77 1026.81 1026.85 1026.97 1027.09 1027.13 1027.17 1027.09 1026.97 1026.89 1026.85 1026.77 1026.73 1026.65 1026.69 1026.49 1026.33 1026.09 1025.89 1025.61 1025.81 1026.05 1025.85 1025.45 1025.01 1024.53 1023.65 1022.85 1022.61 1022.53 1022.33 1022.17 1021.89 1021.57 1021.21 1020.97 1020.81 1020.53 1020.21 1019.81 1019.37 1018.77 1018.21 1017.73 1017.05 1016.01 1014.61 1013.37 1012.33 1011.29 1010.29 1009.29 1008.77 1008.69 1008.69 1008.17 1007.89 1007.53 1007.29 1007.17 1007.13
1027.05 1026.97 1027.01 1027.01 1027.13 1027.25 1027.33 1027.41 1027.41 1027.25 1027.13 1027.13 1027.09 1027.09 1027.09 1027.01 1026.93 1026.77 1026.61 1026.37 1026.13 1025.93 1025.77 1026.13 1026.05 1025.69 1025.25 1024.85 1023.81 1023.13 1022.93 1022.73 1022.61 1022.41 1022.13 1021.85 1021.49 1021.25 1021.05 1020.85 1020.57 1020.25 1019.73 1019.05 1018.53 1017.85 1016.97 1016.01 1014.73 1013.81 1012.89 1011.81 1010.97 1010.29 1009.73 1009.09 1008.81 1008.61 1008.25 1007.97 1007.93 1007.85 1007.65
1027.21 1027.25 1027.25 1027.29 1027.41 1027.53 1027.57 1027.61 1027.69 1027.61 1027.49 1027.45 1027.45 1027.45 1027.25 1027.13 1027.05 1026.97 1026.85 1026.69 1026.61 1026.17 1026.01 1026.17 1026.25 1025.93 1025.53 1025.17 1024.45 1023.57 1023.29 1023.13 1023.01 1022.73 1022.29 1022.01 1021.77 1021.49 1021.25 1021.09 1020.85 1020.57 1020.09 1019.41 1018.85 1018.05 1017.21 1016.25 1015.17 1014.45 1013.57 1012.45 1011.53 1010.89 1010.21 1009.81 1009.33 1008.77 1008.49 1008.09 1007.93 1007.93 1007.77
1027.41 1027.45 1027.49 1027.65 1027.73 1027.81 1027.89 1027.93 1027.89 1027.73 1027.65 1027.61 1027.65 1027.53 1027.41 1027.29 1027.17 1027.05 1027.01 1026.89 1026.85 1026.49 1026.21 1026.17 1026.33 1026.21 1025.89 1025.53 1024.89 1023.93 1023.65 1023.49 1023.29 1022.97 1022.57 1022.21 1021.89 1021.61 1021.29 1021.05 1020.97 1020.81 1020.49 1019.89 1019.13 1018.33 1017.57 1016.77 1015.89 1015.09 1014.37 1013.45 1012.53 1011.73 1011.25 1010.81 1010.37 1009.53 1008.97 1008.53 1008.17 1008.01 1007.89
1027.69 1027.65 1027.77 1027.97 1028.05 1028.09 1028.05 1028.01 1028.01 1027.89 1027.81 1027.69 1027.77 1027.73 1027.61 1027.45 1027.33 1027.25 1027.09 1026.89 1026.77 1026.65 1026.57 1026.37 1026.49 1026.53 1026.21 1025.85 1025.49 1024.57 1023.97 1023.89 1023.61 1023.17 1022.81 1022.49 1022.05 1021.69 1021.37 1021.13 1020.85 1020.85 1020.53 1019.93 1019.25 1018.57 1017.89 1017.29 1016.57 1015.69 1015.01 1014.33 1013.65 1012.85 1012.01 1011.33 1011.05 1010.49 1009.89 1009.53 1009.09 1008.61 1008.37
1027.97 1028.05 1028.13 1028.21 1028.25 1028.25 1028.25 1028.25 1028.21 1028.09 1028.05 1028.09 1028.05 1027.97 1027.89 1027.65 1027.49 1027.37 1027.21 1027.09 1026.93 1026.81 1026.93 1026.81 1026.61 1026.69 1026.45 1026.13 1025.81 1025.13 1024.37 1024.45 1024.05 1023.37 1023.01 1022.69 1022.29 1021.97 1021.61 1021.37 1021.17 1021.09 1020.73 1020.13 1019.49 1018.85 1018.25 1017.65 1017.01 1016.21 1015.81 1015.29 1014.73 1013.93 1012.49 1011.77 1011.49 1011.05 1010.57 1010.41 1010.01 1009.21 1008.61
1028.25 1028.33 1028.33 1028.25 1028.29 1028.41 1028.49 1028.45 1028.37 1028.33 1028.29 1028.29 1028.29 1028.21 1028.05 1027.81 1027.57 1027.45 1027.33 1027.25 1027.21 1027.09 1027.01 1027.13 1026.89 1026.65 1026.57 1026.29 1026.05 1025.77 1025.13 1024.85 1024.69 1023.69 1023.33 1022.97 1022.61 1022.21 1022.05 1021.81 1021.57 1021.45 1021.01 1020.37 1019.77 1019.21 1018.65 1018.05 1017.33 1016.73 1016.45 1015.81 1014.89 1013.93 1013.17 1012.69 1012.25 1011.77 1011.25 1010.97 1010.61 1009.85 1009.33
1028.49 1028.49 1028.53 1028.49 1028.45 1028.53 1028.53 1028.53 1028.57 1028.53 1028.45 1028.33 1028.29 1028.25 1028.09 1027.93 1027.73 1027.65 1027.57 1027.45 1027.37 1027.29 1027.13 1026.93 1027.13 1026.85 1026.61 1026.45 1026.21 1025.89 1025.73 1025.33 1024.93 1023.93 1023.53 1023.29 1022.97 1022.77 1022.45 1022.21 1021.93 1021.73 1021.21 1020.65 1020.13 1019.61 1019.13 1018.61 1017.81 1017.49 1016.81 1015.97 1015.25 1014.49 1013.73 1013.41 1013.09 1012.53 1012.01 1011.65 1011.13 1010.61 1010.21
1028.65 1028.65 1028.65 1028.53 1028.49 1028.49 1028.53 1028.53 1028.53 1028.49 1028.45 1028.25 1028.13 1028.09 1028.05 1027.97 1027.89 1027.89 1027.85 1027.73 1027.61 1027.45 1027.25 1027.01 1026.93 1027.01 1026.73 1026.49 1026.25 1026.05 1025.73 1025.45 1025.13 1024.61 1023.97 1023.73 1023.45 1023.21 1022.97 1022.65 1022.37 1022.01 1021.41 1020.89 1020.41 1019.93 1019.53 1019.05 1018.65 1018.05 1017.29 1016.65 1015.97 1015.45 1014.89 1014.49 1014.05 1013.53 1012.77 1012.09 1011.89 1011.81 1011.45
Wind_Speed
6 6 4 4 4 4 5 5 5 7 8 8 8 8 7 7 7 7 7 7 6 6 6 6 6 6 5 4 5 5 5 4 6 6 7 5 7 6 4 7 9 9 9 9 10 10 9 9 5 5 7 9 9 10 9 11 13 13 12 12 13 13 12
6 5 4 3 3 3 5 5 6 6 7 8 8 8 8 8 7 8 8 7 7 6 6 6 7 7 8 7 6 5 5 5 4 5 6 6 6 7 7 6 6 8 8 7 9 7 7 8 10 6 6 5 6 8 9 9 9 11 13 13 14 15 13
4 3 3 3 4 4 5 5 5 6 6 6 7 8 8 8 8 8 8 8 8 8 7 7 8 9 8 7 8 7 6 6 4 5 6 6 5 6 7 7 6 6 8 7 6 6 8 9 11 8 5 5 7 6 9 9 11 11 11 12 12 11 9
5 4 4 4 4 4 4 5 5 4 5 5 6 7 8 8 7 8 8 7 7 7 7 8 8 9 9 8 7 8 8 9 6 6 6 6 6 6 7 6 7 7 7 7 6 5 6 6 6 8 8 8 9 10 7 11 10 12 10 9 11 11 12
6 5 5 5 5 5 5 4 4 4 5 5 6 6 8 8 6 7 7 7 7 7 8 7 7 8 8 8 9 8 8 8 9 7 7 7 7 6 7 6 7 7 7 7 8 7 7 8 8 9 7 5 8 9 9 5 9 11 12 14 12 14 14
7 7 6 6 5 5 4 5 5 4 5 5 6 6 8 8 6 7 8 8 6 6 7 7 7 8 8 8 8 9 10 10 9 10 10 10 9 8 8 7 7 7 8 8 8 9 8 7 8 9 9 8 10 7 7 7 7 11 13 13 14 12 14
7 7 6 6 6 5 5 5 5 5 5 6 6 6 6 6 6 6 7 6 6 7 7 7 7 7 8 8 8 9 10 9 9 11 10 10 10 10 8 8 8 7 7 7 7 8 8 9 9 9 9 6 6 10 6 6 5 6 10 13 13 11 14
7 6 6 6 6 6 6 5 5 5 5 5 5 5 6 6 7 6 8 7 7 8 8 8 7 7 8 8 7 8 7 7 8 8 9 11 10 12 11 10 10 8 7 6 6 7 7 8 9 8 8 10 8 9 8 6 7 12 9 7 13 14 14
7 7 6 6 6 6 6 6 6 6 5 5 5 6 7 6 6 7 7 8 9 8 8 8 9 8 9 8 8 8 9 7 9 11 9 9 10 12 12 11 11 11 9 8 8 7 7 8 9 9 9 10 9 8 6 8 8 10 11 10 6 12 12
9 9 7 8 7 7 7 6 6 6 6 6 5 6 7 8 8 8 8 9 9 9 9 10 10 10 10 9 9 10 10 10 9 10 9 9 9 10 9 12 11 11 10 9 8 8 7 7 9 9 8 10 10 11 8 6 9 9 7 11 8 8 11
9 9 8 8 7 7 7 6 6 6 7 6 6 6 7 8 9 10 9 9 9 10 11 10 11 11 11 9 10 10 10 11 10 9 9 9 10 9 10 9 9 10 10 11 9 9 9 9 9 8 8 8 9 12 9 10 10 7 6 8 9 6 8
9 8 8 8 7 8 8 7 8 8 7 7 7 8 8 9 9 9 9 9 10 11 11 11 11 11 11 10 10 9 10 11 10 11 10 11 10 10 11 12 10 10 10 12 12 11 9 9 7 7 9 8 9 11 10 11 11 5 6 8 7 10 8
9 9 8 8 8 8 8 8 7 8 9 8 8 9 9 10 10 10 10 10 11 11 12 11 11 11 10 10 10 9 10 11 11 10 10 10 10 11 12 12 12 10 11 11 11 12 11 10 9 9 9 9 9 10 11 11 12 13 7 8 8 7 9
9 9 9 9 8 8 8 8 8 7 7 9 9 9 10 10 11 11 11 11 12 12 12 12 11 11 11 11 10 10 10 11 11 10 10 11 10 11 11 12 13 13 12 12 11 11 12 12 11 9 8 9 9 9 10 10 10 11 8 5 6 7 8
9 9 10 10 10 9 9 9 8 8 8 9 10 10 11 10 10 11 11 12 13 13 13 13 13 11 11 11 11 9 10 11 11 10 10 11 12 10 11 12 12 13 12 12 12 12 11 12 13 12 9 7 9 9 7 9 10 9 12 4 7 5 6
9 10 11 10 11 10 9 9 9 9 8 8 10 10 11 11 11 12 12 12 13 13 14 13 13 12 11 11 11 11 11 11 11 11 11 12 12 12 12 12 12 12 10 12 14 12 12 12 12 13 13 10 9 10 9 10 10 11 12 10 7 8 6
11 11 11 10 11 11 9 9 9 9 9 9 10 10 11 11 11 12 12 13 13 13 14 14 14 13 12 12 11 12 11 11 11 11 12 12 13 13 13 14 14 14 13 13 13 12 11 11 12 10 13 12 11 11 9 8 10 10 10 10 7 8 7
11 12 12 10 11 11 10 9 9 10 9 10 10 10 11 11 12 12 12 13 13 13 14 14 15 15 13 12 12 11 11 11 11 12 12 11 11 11 11 12 12 13 13 13 12 11 11 14 13 11 12 11 11 11 8 8 10 9 11 10 9 6 7
12 12 11 11 11 10 10 10 9 9 10 10 10 11 12 12 12 13 13 13 13 13 13 14 14 14 14 13 12 11 11 11 11 11 11 11 12 11 10 11 11 12 12 12 12 13 14 15 14 13 14 13 13 12 13 11 9 11 11 11 12 9 6
10 10 10 10 9 10 10 10 10 10 9 10 10 10 11 13 12 12 13 12 13 14 14 14 15 15 15 14 12 12 12 12 12 11 12 12 12 12 11 11 11 11 12 13 13 13 14 15 12 14 13 13 12 12 12 13 10 9 10 9 10 11 8
10 10 9 10 10 10 9 9 9 9 9 10 10 11 12 12 11 11 12 13 13 12 13 14 16 16 15 14 13 12 12 12 13 12 13 13 13 13 13 12 12 12 13 13 14 14 13 13 13 14 12 12 12 12 12 11 11 9 9 10 9 9 9
9 9 9 10 10 10 9 9 10 9 10 9 8 10 10 10 10 11 11 11 12 11 11 12 13 15 14 14 13 11 12 12 13 13 14 14 14 14 14 14 13 13 16 19 19 16 15 14 12 13 13 13 13 12 12 10 11 11 10 11 9 10 9
9 8 9 9 9 9 9 9 9 10 10 10 9 9 9 9 10 10 10 11 11 10 13 13 19 22 19 14 12 10 11 11 12 12 13 14 14 15 15 14 15 21 21 22 20 19 18 18 19 14 13 13 14 13 12 12 11 10 9 9 9 8 9
8 9 8 8 8 9 10 9 9 10 9 9 9 9 9 10 10 10 11 11 12 11 12 15 22 19 19 21 14 10 11 11 12 12 13 14 14 15 16 16 15 17 19 20 20 20 19 21 21 22 22 19 16 14 13 13 12 10 10 9 7 9 10
8 8 8 8 8 9 9 9 9 9 8 9 8 8 10 10 9 10 9 11 12 12 13 19 19 20 19 19 17 11 10 10 11 11 12 14 13 14 15 15 15 14 14 19 20 19 23 25 24 23 22 21 19 18 17 15 13 11 10 10 9 9 8
8 7 7 8 8 8 9 9 9 9 9 8 8 10 10 10 10 10 11 11 12 13 14 19 19 20 20 19 17 13 10 11 11 12 12 13 14 14 14 14 16 15 15 25 19 19 20 23 26 25 21 19 17 16 15 16 20 18 13 12 12 10 10
8 7 7 8 8 9 9 9 8 7 7 8 9 10 10 11 10 12 11 11 11 13 16 19 19 20 20 19 17 13 12 11 11 12 13 13 13 14 15 15 15 17 18 18 17 21 22 22 20 19 19 18 18 18 15 16 17 20 19 12 10 11 10
8 7 8 8 9 9 9 8 9 7 8 8 9 9 9 10 10 12 11 12 11 12 13 18 19 20 19 19 16 11 14 11 12 12 12 13 14 14 15 15 15 15 17 17 17 23 22 22 20 16 18 19 17 16 14 12 11 9 6 8 9 11 10
7 8 9 9 9 9 9 8 8 7 7 8 8 8 9 9 10 12 11 12 11 13 12 18 19 19 20 21 17 11 14 13 13 12 13 14 14 13 14 16 15 16 17 18 23 27 24 22 17 17 17 17 16 14 11 7 7 6 5 5 4 3 3
8 9 9 9 9 9 9 8 7 6 8 8 9 9 9 9 9 12 12 13 12 11 13 16 19 19 20 21 15 13 13 12 12 13 13 14 13 14 14 16 16 15 16 17 24 26 26 26 16 17 17 17 14 12 12 14 10 9 10 11 10 9 8
9 9 9 10 9 8 8 7 7 6 7 8 9 8 7 9 9 11 12 11 11 12 11 15 18 19 19 20 16 13 12 12 12 13 13 14 13 13 15 20 20 18 17 18 25 25 26 24 17 17 17 17 17 15 14 13 12 8 5 6 9 9 11
9 9 10 9 8 8 7 6 5 6 6 7 7 7 8 8 9 9 9 10 11 12 12 14 18 19 19 19 15 12 12 11 12 13 13 13 13 13 14 15 21 21 20 20 23 24 26 23 16 17 17 16 15 16 14 12 13 11 10 8 8 8 9
9 10 10 9 8 7 6 7 7 7 7 7 8 8 8 9 10 9 9 10 10 11 12 13 15 18 18 18 19 12 12 11 12 13 13 13 13 14 15 15 17 22 23 22 23 23 24 24 18 16 16 15 15 15 11 12 13 10 11 10 8 7 9
10 9 8 8 7 7 7 7 7 8 8 7 8 8 8 8 9 10 10 10 11 11 10 12 13 15 17 17 18 15 12 13 11 12 12 14 14 14 15 15 16 21 22 23 22 24 24 24 22 17 16 14 14 15 13 9 14 16 10 10 9 8 8
7 6 6 7 8 8 7 7 7 7 7 7 9 9 8 8 9 10 10 10 10 10 10 13 12 13 16 16 16 17 12 12 11 11 13 13 14 14 15 15 16 19 21 22 22 23 24 23 24 15 18 23 23 22 15 11 10 11 10 10 9 10 10
6 5 6 6 8 8 7 7 6 6 5 6 8 8 9 8 9 10 10 10 9 10 10 9 13 13 15 15 15 15 15 13 14 12 13 14 14 14 14 15 15 20 20 20 21 22 22 23 18 19 26 25 25 24 18 13 12 11 11 11 12 13 12
5 5 5 5 7 8 7 6 7 6 6 6 7 8 8 8 9 9 9 9 9 9 9 9 10 13 13 14 14 15 14 15 15 10 10 10 10 11 12 13 13 17 18 19 19 19 21 22 18 21 22 24 22 19 13 13 13 12 11 13 14 12 12
Wind_Direction
99 106 94 85 78 71 61 51 45 43 41 41 39 35 28 24 20 17 13 13 10 0 346 342 335 327 329 329 325 322 310 308 310 304 308 308 308 309 252 265 269 265 260 260 258 266 280 288 265 207 236 234 227 230 226 225 224 222 217 216 221 220 219
97 94 96 83 79 66 58 52 44 39 37 39 38 36 29 24 22 19 18 16 8 359 353 350 343 340 341 339 334 325 315 313 312 314 313 326 314 304 307 286 268 270 267 251 263 258 265 272 272 259 257 221 229 234 226 224 228 228 223 220 221 223 219
105 104 85 74 63 49 47 42 37 38 32 30 36 30 28 25 25 20 19 15 15 7 6 356 355 353 352 349 338 328 319 310 305 307 306 303 296 298 287 286 288 287 282 278 258 253 252 238 263 265 249 255 249 230 222 219 220 228 229 228 223 213 204
80 71 71 56 43 34 31 37 39 39 43 31 34 32 29 26 29 25 23 18 13 5 359 360 2 354 349 343 332 324 323 319 313 305 301 289 283 276 269 269 274 271 278 286 283 248 245 256 254 254 250 246 252 267 227 219 219 222 220 226 225 217 209
69 65 58 53 40 38 35 32 23 29 31 31 30 26 26 19 25 26 24 24 19 9 8 356 3 355 348 340 339 334 328 323 323 317 309 302 301 287 276 267 268 279 275 267 263 251 252 258 252 261 258 242 253 243 256 219 218 217 218 221 221 219 218
65 64 62 57 44 41 34 27 20 21 18 20 26 19 21 14 19 24 24 23 13 7 1 356 356 0 355 343 340 337 334 332 332 325 322 321 318 306 303 296 281 276 273 271 269 271 260 248 256 268 262 244 253 257 240 218 227 223 227 225 226 217 220
69 66 66 60 53 51 46 40 33 25 22 26 22 22 11 14 21 29 21 24 18 9 4 358 356 357 355 348 348 347 342 346 341 334 323 321 317 316 308 296 289 286 285 284 279 272 267 256 249 245 256 241 231 255 244 247 226 234 230 227 223 211 220
71 69 64 58 53 51 50 49 44 31 28 23 25 23 19 22 22 23 26 24 18 12 8 5 358 356 355 346 345 340 335 340 337 333 330 327 320 313 310 306 304 291 280 271 255 258 259 262 263 262 261 267 247 232 243 233 234 227 238 224 217 218 220
69 69 66 61 59 54 51 48 45 39 33 29 30 26 26 16 20 20 22 20 12 8 5 3 0 357 350 343 343 343 338 345 333 329 328 328 324 322 315 309 302 299 297 291 286 278 265 257 261 263 259 258 271 275 242 242 229 236 216 231 212 212 208
67 64 62 60 56 52 50 45 42 38 34 29 26 22 22 23 24 20 23 18 16 12 9 7 2 358 351 347 345 340 340 339 331 327 327 329 326 327 323 318 314 305 298 296 284 274 272 268 267 258 249 257 258 258 262 244 234 240 216 210 223 203 201
67 64 57 52 48 47 43 45 43 41 35 31 32 29 27 27 27 28 24 22 18 18 14 11 5 2 357 354 350 347 347 342 336 332 332 330 328 326 320 320 315 309 311 307 295 285 281 276 272 265 258 249 243 256 255 258 259 222 234 215 220 220 188
63 63 61 59 55 53 47 44 46 42 39 36 34 34 33 32 32 32 30 25 21 18 16 12 6 2 359 355 352 348 348 346 343 340 338 337 332 330 327 323 322 316 313 311 307 298 287 281 270 263 263 256 253 251 250 256 263 233 197 232 223 222 211
65 65 63 61 59 54 49 43 41 43 41 40 40 40 41 39 36 35 31 27 23 20 16 11 6 360 357 355 350 347 344 342 341 340 338 338 335 331 329 327 325 318 316 311 305 304 302 289 280 282 273 267 265 256 256 255 254 263 204 214 224 216 209
69 67 64 61 60 54 49 43 39 39 40 42 41 42 42 41 38 35 32 28 24 19 14 10 5 358 357 352 348 343 342 343 340 339 334 331 334 333 332 328 326 325 322 314 309 309 308 307 296 285 281 276 269 260 258 255 257 261 254 205 222 215 202
68 64 65 58 55 52 47 42 36 36 42 40 42 42 43 40 38 35 33 29 24 20 16 11 5 0 355 351 346 346 341 340 339 336 335 335 336 335 326 324 324 326 326 321 315 309 306 305 305 300 289 271 270 269 247 256 255 258 262 211 226 215 210
64 63 61 56 51 49 46 44 38 38 40 40 44 45 42 41 39 37 35 30 24 21 16 11 7 0 355 350 345 344 341 340 338 337 336 334 334 331 328 325 322 324 326 322 321 314 312 309 310 309 304 289 277 272 264 256 256 256 259 255 216 218 207
62 60 59 55 52 49 47 45 40 41 41 41 45 46 44 40 40 37 35 30 25 21 18 15 10 7 359 351 346 341 339 340 339 340 339 336 333 334 333 330 326 325 322 319 319 320 319 323 321 318 314 309 293 277 261 251 250 255 256 260 230 219 212
62 60 59 56 52 50 47 46 42 40 41 44 44 44 45 42 40 38 34 29 26 23 19 15 10 7 2 355 347 344 342 343 340 338 340 341 341 337 335 334 332 336 334 331 328 329 330 327 323 315 313 314 311 297 273 253 257 248 252 248 248 216 209
61 59 56 55 51 49 46 44 43 42 40 43 46 47 46 45 41 39 37 32 28 24 20 15 9 3 359 355 353 351 349 346 346 344 343 342 342 339 337 335 335 337 336 334 330 329 328 325 322 317 316 311 307 305 299 279 253 257 249 248 248 237 194
62 59 57 54 54 50 48 45 45 43 41 42 45 45 45 47 43 40 36 31 29 24 20 15 9 2 359 358 355 356 356 354 352 351 347 345 344 343 339 338 336 338 336 336 332 331 326 323 322 315 309 306 301 307 303 291 267 251 243 243 245 236 225
63 62 59 59 56 54 51 50 47 45 43 43 42 43 46 45 45 41 39 38 33 28 22 19 13 4 359 358 354 357 358 357 356 353 349 349 349 346 344 340 338 339 339 337 335 327 325 322 320 313 310 307 307 306 302 300 283 250 243 243 235 233 220
65 63 62 61 58 55 54 51 49 47 45 45 41 42 46 45 43 42 39 38 34 27 23 17 13 5 358 355 354 356 357 358 358 355 352 351 351 350 348 345 340 338 336 334 329 322 317 314 311 312 307 307 303 299 294 293 291 273 254 246 241 234 229
69 66 64 62 60 59 57 54 51 50 47 44 42 39 43 43 42 40 37 33 31 30 25 19 2 359 2 358 352 356 358 360 0 358 355 351 349 349 349 345 340 340 337 336 332 328 323 316 312 301 293 296 295 293 287 287 285 278 263 246 236 232 229
71 69 67 66 64 61 58 55 53 51 48 44 41 39 39 41 40 33 33 32 31 30 25 10 358 359 357 357 356 356 2 359 360 359 358 355 349 348 346 345 343 341 341 341 337 333 325 320 314 308 299 285 270 268 279 276 272 277 267 250 240 235 238
75 72 71 68 66 62 59 57 55 51 48 44 42 41 41 37 37 34 32 35 35 29 25 8 358 359 358 354 356 353 9 1 0 0 358 355 352 351 348 345 344 344 343 341 339 336 331 323 316 308 302 295 286 266 241 241 259 269 265 261 253 241 233
80 77 73 71 66 64 60 58 54 50 47 42 43 43 38 35 34 34 33 35 34 30 22 8 358 360 359 354 349 343 18 2 2 4 359 357 354 353 351 347 345 346 344 343 342 339 333 326 320 314 308 304 295 283 270 243 230 238 262 264 260 253 238
83 79 77 73 70 65 63 59 55 51 48 44 43 42 38 35 33 38 36 33 34 31 23 6 1 1 1 354 346 339 22 6 5 5 1 359 356 356 355 352 348 346 345 342 343 342 335 330 323 318 320 323 319 309 292 271 257 234 233 245 254 257 253
84 82 78 74 70 65 61 59 55 51 49 45 44 41 35 32 32 37 34 34 34 31 24 7 4 1 1 356 341 359 19 13 9 5 1 358 358 358 356 356 352 348 345 343 346 341 336 333 325 322 325 325 323 313 302 298 296 298 256 220 230 249 265
86 83 78 74 71 66 62 56 53 49 53 53 50 46 43 35 35 37 34 33 33 31 27 15 4 4 1 359 345 18 17 14 11 7 4 0 359 0 359 359 356 351 346 345 344 339 338 336 328 331 330 332 336 337 332 351 5 339 332 333 339 343 334
83 80 77 76 70 64 61 56 51 45 56 52 48 45 42 38 39 42 36 36 33 29 30 19 8 5 4 1 0 20 16 14 12 9 7 5 2 1 0 359 2 355 348 348 344 342 344 343 338 341 339 340 346 350 355 346 351 11 20 45 50 49 47
83 78 76 74 70 67 64 61 57 43 54 54 51 42 41 45 43 45 41 33 23 28 25 23 13 8 6 5 356 16 15 13 12 10 8 9 5 2 360 2 4 360 352 349 345 348 350 351 349 349 347 350 356 4 358 356 346 348 354 53 55 49 44
80 79 76 69 66 68 62 60 56 55 57 59 53 50 44 47 46 42 34 29 17 20 22 24 17 9 8 8 5 17 15 14 12 12 9 7 6 4 3 5 4 1 355 348 348 354 354 356 354 358 354 354 360 8 3 354 351 350 357 8 24 28 34
75 75 76 73 69 66 67 65 57 59 58 57 57 52 50 48 47 42 32 30 30 26 20 25 20 10 11 11 7 6 23 17 14 13 12 11 7 8 8 7 6 1 352 351 355 357 359 359 359 0 359 359 356 359 344 10 2 356 3 3 7 29 43
77 73 74 77 75 68 62 62 60 60 62 60 59 54 48 49 51 47 40 34 30 29 21 15 18 14 12 13 13 11 29 20 13 15 16 15 14 12 10 10 9 360 353 356 358 360 2 0 2 5 3 357 353 346 355 9 1 359 9 2 1 20 33
75 76 72 75 78 73 66 63 60 61 66 65 63 57 49 51 51 49 46 39 32 24 21 25 13 15 12 12 15 16 19 21 357 17 19 22 18 19 15 12 12 356 354 359 1 3 3 2 5 9 0 359 359 2 10 8 8 10 11 11 4 20 27
76 76 73 71 77 76 70 68 63 59 63 67 64 59 51 48 49 47 46 41 35 27 16 23 18 13 11 9 12 13 15 16 357 21 30 30 25 20 19 14 8 356 359 1 3 4 5 4 9 6 3 3 3 4 10 15 6 12 17 11 12 20 21
76 70 72 76 76 74 68 69 63 56 51 56 60 57 50 48 48 47 42 40 36 30 22 19 20 12 5 5 10 11 11 11 12 8 18 26 14 11 7 4 355 352 3 5 7 8 10 9 6 4 7 5 4 7 12 13 10 4 10 22 18 11 11